Terminal Aerodrome Forecast
Issued by NWS

Home | Current Version | Previous Version | Text Only | Print | Product List | Glossary On
Versions: 1 2 3 4 5 6 7 8 9 10 11 12 13 14 15 16 17 18 19 20 21 22 23 24 25 26 27 28 29
000
FTUS43 KPAH 251720
TAFOWB
TAF
KOWB 251720Z 2518/2618 VRB06KT P6SM SCT150 BKN250
     FM260000 VRB03KT P6SM SCT100 OVC150
     FM260600 01003KT P6SM SCT060 OVC100
     FM261000 01005KT P6SM SCT030 OVC060
     FM261400 01007KT P6SM OVC030=

USA.gov is the U.S. government's official web portal to all federal, state and local government web resources and services.